Date,TemperatureHighF,TemperatureAvgF,TemperatureLowF,DewpointHighF,DewpointAvgF,DewpointLowF,HumidityHigh,HumidityAvg,HumidityLow,PressureMaxIn,PressureMinIn,WindSpeedMaxMPH,WindSpeedAvgMPH,GustSpeedMaxMPH,PrecipitationSumIn
2013-4-1,38.5,32.0,26.2,28.1,24.7,21.3,83,74,60,29.91,29.80,16,6,16,0.00
2013-4-2,41.1,33.7,26.7,28.6,25.2,22.2,83,72,56,29.98,29.89,20,7,20,0.00
2013-4-3,41.1,33.9,29.9,29.2,26.2,24.5,81,73,58,30.00,29.96,13,6,13,0.00
2013-4-4,41.4,34.9,30.6,31.3,28.4,25.8,83,77,66,29.97,29.86,9,5,9,0.00
2013-4-5,39.2,35.4,32.7,32.1,29.9,28.1,83,80,74,29.87,29.75,12,5,12,0.00
2013-4-6,42.1,36.6,34.0,34.0,30.9,29.4,83,80,71,30.15,29.87,13,7,13,0.00
2013-4-7,43.5,36.7,27.2,32.9,28.7,22.1,83,73,51,30.17,30.06,13,5,13,0.00
2013-4-8,50.2,36.6,20.8,32.9,24.0,16.4,84,63,39,30.06,29.74,18,6,18,0.00
2013-4-9,51.8,42.9,35.8,39.4,33.6,27.3,82,70,59,29.75,29.66,14,5,14,0.08
2013-4-10,55.8,46.3,39.3,48.1,39.9,34.3,82,79,65,29.84,29.66,18,7,18,0.06
2013-4-11,61.5,48.5,37.5,49.4,42.2,32.5,83,79,62,29.84,29.62,20,7,20,0.05
2013-4-12,60.8,51.1,40.9,50.6,45.0,36.1,84,80,65,29.80,29.54,33,8,33,0.30
2013-4-13,60.4,50.2,39.9,46.8,41.7,35.2,83,73,53,30.26,29.80,26,11,26,0.02
2013-4-14,66.6,50.8,34.5,47.5,40.6,29.9,88,70,43,30.37,30.26,8,3,8,0.00
2013-4-15,70.7,56.0,39.1,47.9,40.7,34.4,83,59,32,30.32,30.14,18,6,18,0.04
2013-4-16,67.7,56.8,46.3,50.2,43.8,37.3,81,63,48,30.17,30.09,15,6,15,0.04
2013-4-17,74.0,60.1,48.7,57.2,49.5,43.5,83,70,45,30.22,30.13,10,2,10,0.01
2013-4-18,52.6,51.6,51.3,46.1,45.7,45.4,81,80,79,30.13,30.13,1,0,1,0.00
2013-4-19,61.2,56.2,47.9,53.5,45.8,39.7,82,69,49,30.24,30.02,18,5,18,0.10
2013-4-20,52.9,48.5,44.1,45.3,42.1,39.0,83,79,70,30.32,30.24,12,6,12,0.13
2013-4-21,67.4,53.0,38.1,51.4,43.3,33.3,83,71,54,30.27,29.95,18,7,18,0.00
2013-4-22,72.0,55.7,42.7,56.3,47.1,37.8,83,74,50,30.02,29.91,20,4,20,0.35
2013-4-23,70.7,57.5,46.9,54.4,46.8,41.4,84,69,48,30.21,30.02,24,6,24,0.01
2013-4-24,74.2,58.3,42.6,53.1,45.4,37.5,83,64,40,30.33,30.21,12,4,12,0.00
2013-4-25,78.2,62.7,46.4,57.4,49.7,41.5,83,65,39,30.28,30.09,13,3,13,0.00
2013-4-26,82.3,64.6,48.3,58.2,49.3,43.4,83,62,30,30.09,29.64,15,5,15,0.00
2013-4-27,53.4,49.4,47.8,47.5,44.5,43.2,84,83,79,29.72,29.62,13,9,13,0.10
2013-4-28,55.2,47.2,42.6,46.4,41.7,38.1,85,81,70,30.04,29.69,15,8,15,0.33
2013-4-29,56.8,51.5,47.3,51.1,46.3,42.4,84,82,78,30.15,29.98,12,4,12,0.01
2013-4-30,57.7,49.7,46.6,51.3,44.6,41.7,84,83,78,30.16,30.14,7,2,7,0.00